Ballenas Island, British Columbia

6:11 AM PDT on June 27, 2017 (GMT -0700)
Ballenas Island

Weather History for CWGB - December, 2012

Change the Weather History Date:

Friday, December 7, 2012

  Actual Average Record
Temperature  
Mean Temperature 41 °F -  
Max Temperature 43 °F - - ()
Min Temperature 39 °F - - ()
Degree Days  
Heating Degree Days 24    
Moisture  
Dew Point 36 °F    
Average Humidity 80    
Maximum Humidity 88    
Minimum Humidity 63    
Precipitation  
Precipitation 0.01 in - - ()
Sea Level Pressure  
Sea Level Pressure 29.96 in    
Wind  
Wind Speed 12 mph ()    
Max Wind Speed 23 mph    
Max Gust Speed -    
T = Trace of Precipitation, MM = Missing Value Source: Averaged Metar Reports

Daily Weather History Graph

Daily Weather History Graph

Search for Another Location

Airport or City:

Trip Planner

Search our weather history database for the weather conditions in past years. The results will help you decide how hot, cold, wet, or windy it might be!

Date:

Astronomy

Dec. 07, 2012 Rise Set
Actual Time 7:58 AM PST 4:18 PM PST
Civil Twilight 7:21 AM PST 4:55 PM PST
Nautical Twilight 6:40 AM PST 5:35 PM PST
Astronomical Twilight 6:02 AM PST 6:14 PM PST
Moon 12:53 AM PST (12/7) 12:45 PM PST (12/7)
Length of Visible Light 9h 33m
Length of Day
8h 19m
Last Quarter, 37% of the Moon is Illuminated
Dec 7
Last Quarter
Dec 13
New
Dec 19
First Quarter
Dec 28
Full
Jan 4
Last Quarter

Hourly Weather History & Observations

Time (PST) Temp. Windchill Dew Point Humidity Pressure Visibility Wind Dir Wind Speed Gust Speed Precip Events Conditions
12:00 AM 42.4 °F 35.7 °F 38.7 °F 86% 29.95 in - SE 12.7 mph - N/A   Unknown
1:00 AM 42.6 °F 34.6 °F 37.6 °F 82% 29.93 in - ESE 17.3 mph - N/A   Unknown
2:00 AM 42.3 °F 34.1 °F 38.3 °F 86% 29.93 in - ESE 17.3 mph - N/A   Unknown
3:00 AM 42.3 °F 36.3 °F 38.5 °F 86% 29.92 in - ESE 10.4 mph - N/A   Unknown
4:00 AM 41 °F - 38 °F 83% 29.90 in - SE 6.9 mph - -  
4:00 AM 41.0 °F 36.4 °F 37.6 °F 88% 29.90 in - SE 6.9 mph - N/A   Unknown
5:00 AM 40.8 °F 38.8 °F 37.0 °F 86% 29.89 in - SSE 3.5 mph - N/A   Unknown
6:00 AM 40.6 °F - 37.0 °F 87% 29.88 in - South 1.2 mph - N/A   Unknown
7:00 AM 41.7 °F - 36.5 °F 82% 29.88 in - WSW 2.3 mph - N/A   Unknown
8:00 AM 42.1 °F 33.6 °F 37.9 °F 85% 29.87 in - West 18.4 mph - N/A   Unknown
9:00 AM 42.6 °F 33.8 °F 38.3 °F 85% 29.89 in - NW 20.7 mph - N/A   Unknown
10:00 AM 43 °F - 37 °F 72% 29.90 in - NW 13.8 mph - -  
10:00 AM 42.8 °F 35.8 °F 36.9 °F 80% 29.90 in - NW 13.8 mph - N/A   Unknown
11:00 AM 41.9 °F 33.1 °F 37.2 °F 83% 29.93 in - WNW 19.6 mph - N/A   Unknown
12:00 PM 41.2 °F 32.1 °F 36.7 °F 84% 29.95 in - NW 19.6 mph - N/A   Unknown
1:00 PM 42.6 °F 33.3 °F 37.4 °F 82% 29.96 in - WNW 23.0 mph - N/A   Unknown
2:00 PM 42.3 °F 33.1 °F 35.4 °F 77% 29.98 in - WNW 21.9 mph - N/A   Unknown
3:00 PM 42.3 °F 34.1 °F 35.4 °F 77% 29.99 in - NW 17.3 mph - N/A   Unknown
4:00 PM 43 °F - 35 °F 63% 30.00 in - West 19.6 mph - -  
5:00 PM 42.8 °F 34.8 °F 34.3 °F 72% 30.02 in - WNW 17.3 mph - N/A   Unknown
6:00 PM 42.4 °F 34.7 °F 34.0 °F 72% 30.03 in - WNW 16.1 mph - N/A   Unknown
7:00 PM 42.1 °F 34.9 °F 34.5 °F 75% 30.05 in - NW 13.8 mph - N/A   Unknown
8:00 PM 41.0 °F 34.7 °F 33.4 °F 74% 30.06 in - NW 10.4 mph - N/A   Unknown
9:00 PM 40.6 °F 33.8 °F 33.8 °F 77% 30.07 in - NNW 11.5 mph - N/A   Unknown
10:00 PM 40 °F - 34 °F 72% 30.08 in - WSW 8.1 mph - -  
10:00 PM 39.6 °F 34.0 °F 34.2 °F 81% 30.08 in - WSW 8.1 mph - N/A   Unknown
11:00 PM 39.7 °F 36.5 °F 34.2 °F 80% 30.09 in - West 4.6 mph - N/A   Unknown